Regional Weather Roundup
Issued by NWS

Home | Current Version | Previous Version | Graphics & Text | Print | Product List | Glossary On
Versions: 1 2 3 4 5 6 7 8 9 10 11 12 13 14 15 16 17 18 19 20 21 22 23 24 25 26 27 28 29 30 31 32 33 34 35 36 37 38 39 40 41 42 43 44 45 46 47 48 49 50
815
ASUS43 KIND 300259
RWRIN

WEATHER ROUNDUP FOR INDIANA
NATIONAL WEATHER SERVICE INDIANAPOLIS IN
1100 PM EDT WED MAR 29 2017

NOTE: "FAIR" INDICATES FEW OR NO CLOUDS BELOW 12,000 FEET WITH NO
SIGNIFICANT WEATHER AND/OR OBSTRUCTIONS TO VISIBILITY.

* - STATION DOES NOT REPORT WEATHER SUCH AS PRECIPITATION OR FOG.

+ - STATION NOT QUALITY CONTROLLED BY THE NATIONAL WEATHER SERVICE.
    USE DATA WITH CAUTION...ESPECIALLY DEWPOINT AND RELATIVE
    HUMIDITY OBSERVATIONS.

INZ001>003-010>013-019-020-300400-
NORTHWEST INDIANA

CITY           SKY/WX    TMP DP  RH WIND       PRES   REMARKS
GARY /AIRPORT/ LGT RAIN  46  37  71 NE9       30.09R
MONTICELLO +   CLOUDY    49  38  64 E10G16    30.01F

$$

LMZ046-743>745-300400-
SOUTHERN LAKE MICHIGAN

STATION/POSITION TIME  TEMP    WIND        PRES    WAVE
                       AIR SEA DIR/SP/G            HT
                 (UTC) (F)     (DEG/KT/KT) (MB)    (FT)
BURNS HARBOR     0240   47      70/ 17/ 19 1018.3F
MICHIGAN CITY    0230   48      70/ 13/ 16   N/A

$$

INZ004-005-014>016-021>024-300400-
NORTH CENTRAL INDIANA

CITY           SKY/WX    TMP DP  RH WIND       PRES   REMARKS
GOSHEN         CLOUDY    49  31  49 E12       30.10R
SOUTH BEND     LGT RAIN  47  35  63 E9        30.09F

$$

INZ006>009-017-018-025>027-300400-
NORTHEAST INDIANA

CITY           SKY/WX    TMP DP  RH WIND       PRES   REMARKS
ANGOLA *+      CLOUDY    46  32  57 E14       30.11F
FORT WAYNE     CLOUDY    47  33  58 E17G30    30.07F
KENDALLVILLE + CLOUDY    47  33  57 E12G18    30.11S

$$

INZ028-029-035-036-043>045-051>053-300400-
WEST CENTRAL INDIANA

CITY           SKY/WX    TMP DP  RH WIND       PRES   REMARKS
CRAWFORDSVL +  CLOUDY    54  44  70 SE14G23   29.97S
LAFAYETTE      LGT RAIN  52  42  69 E18G24    29.98S
TERRE HAUTE    CLOUDY    56  45  66 E13       29.93F

$$

INZ030>032-037>040-046>048-054>057-064-065-300400-
CENTRAL INDIANA

CITY           SKY/WX    TMP DP  RH WIND       PRES   REMARKS
INDIANAPOLIS   CLOUDY    55  43  63 E18       29.98F
-EAGLE CREEK   MOCLDY    56  42  59 SE16G22   29.98F
KOKOMO +       CLOUDY    49  40  71 E15       30.02F
SHELBYVILLE    PTCLDY    54  43  66 E16       29.99F

$$

INZ033-034-041-042-049-050-058-059-300400-
EAST CENTRAL INDIANA

CITY           SKY/WX    TMP DP  RH WIND       PRES   REMARKS
MUNCIE         MOCLDY    50  40  68 E13       30.03F
RICHMOND +     CLOUDY    48  41  76 E6        30.05S

$$

INZ060-061-067>069-081>083-085>088-300400-
SOUTHWEST INDIANA

CITY           SKY/WX    TMP DP  RH WIND       PRES   REMARKS
EVANSVILLE     CLOUDY    63  51  65 E12       29.90F
HUNTINGBURG *+ CLOUDY    61  51  70 E14       29.91F

$$

INZ062-063-066-070>080-084-089>092-300400-
SOUTH CENTRAL AND SOUTHEAST INDIANA

CITY           SKY/WX    TMP DP  RH WIND       PRES   REMARKS
BLOOMINGTON    CLOUDY    56  45  66 SE15      29.96F
MADISON *+     PTCLDY    54  45  71 E10G17    30.02F
SEYMOUR +      CLOUDY    57  46  67 E10       30.00S

$$





USA.gov is the U.S. government's official web portal to all federal, state and local government web resources and services.